SL-3 DEB

基本信息
目录编号:
21126
目录名称:
SL-3 DEB
国际标识:
1964-053C
轨道中心:
EARTH
物体状态:
在轨
发射日期:
1964-08-28 UTC
轨道信息
数据来源: 国际轨道数据
星历时间: 2026-09-11T16:50:34+0800
半长轴: 7039.792km
偏心率: 0.0061294
轨道倾角: 65.076°
近地点辐角: 207.483°
升交点赤经: 254.756°
平近点角: 273.576°
近地点: 618.505km
远地点: 704.805km
周期: 97.971分钟
每日圈数: 14.698162
详细信息
发射场:
TTMTR
轨道高度:
LEO
数据来源:
AOE Integration Group
参考系:
TEME
时间系统:
UTC
历元类型:
SGP4
2D轨道图
3D轨道图
轨道高度分析图
轨道倾角分析图
轨道综合分析图
查看轨道综合分析图